Home > Weather > Regensburg > Past weeks

Flag for Germany Past Weather in Regensburg, Bavaria, Germany — Yesterday and Last 2 Weeks

Now
57 °F

Partly sunny.


Feels Like: 57 °F
Forecast: 52 / 74 °F
Wind: 2 mph from West

Location: Hohenfels

Current Time: Jun 27, 2016 at 8:05:31 AM

Latest Report: Jun 27, 2016 at 6:58 AM


Visibility: N/A

Pressure: 30.13 "Hg

Humidity: 88%

Dew Point: 54 °F

Location of RegensburgLocation

Past Weather in Regensburg — Graph

°F

Regensburg Temperature Yesterday

Maximum temperature yesterday: 68 °F (at 1:58 PM)
Minimum temperature yesterday: 57 °F (at 3:58 AM)
Average temperature yesterday: 62 °F

High & Low Weather Summary for the Past Weeks

 TemperatureHumidityPressure
High91 °F (Jun 24, 4:58 PM)100% (Jun 12, 5:59 AM)30.29 "Hg (Jun 12, 5:59 AM)
Low45 °F (Jun 18, 4:58 AM)31% (Jun 24, 6:58 PM)29.53 "Hg (Jun 14, 4:58 PM)
Average63 °F77%29.94 "Hg
* Reported Jun 12 5:59 AM — Jun 27 5:58 AM, Regensburg, Weather by CustomWeather, © 2016

Note: Actual official high and low records may vary slightly from our data, if they occured in-between our weather recording intervals... More about our weather records

Advertising

Regensburg Weather History for the Previous 24 Hours

Scroll right to see more
 ConditionsComfort  
Time TempWeatherWind HumidityBarometerVisibility
5:58 AM
Mon, Jun 27
57 °FMostly cloudy.1 mph88%30.12 "HgN/A
4:58 AM57 °FLight rain. Overcast.No wind88%30.11 "HgN/A
3:58 AM59 °FOvercast.6 mph77%30.10 "HgN/A
2:58 AM59 °FMostly cloudy.5 mph77%30.09 "HgN/A
1:58 AM59 °FOvercast.6 mph77%30.09 "HgN/A
12:58 AM59 °FPassing clouds.9 mph82%30.12 "HgN/A
11:58 PM
Sun, Jun 26
59 °FMostly cloudy.5 mph82%30.11 "HgN/A
10:58 PM61 °FPassing clouds.2 mph77%30.09 "HgN/A
9:58 PM63 °FLight rain. Overcast.3 mph77%30.09 "HgN/A
8:58 PM64 °FPartly sunny.3 mph73%30.07 "HgN/A
7:58 PM64 °FMild.N/A68%30.08 "HgN/A
6:58 PM64 °FOvercast.1 mph68%30.07 "HgN/A
5:58 PM64 °FOvercast.No wind64%30.07 "HgN/A
5:04 PM64 °FMore clouds than sun.6 mph64%30.09 "HgN/A
4:58 PM66 °FLight rain. Mostly cloudy.8 mph64%30.07 "HgN/A
3:58 PM66 °FMore clouds than sun.5 mph60%30.07 "HgN/A
2:58 PM68 °FMore clouds than sun.2 mph49%30.07 "HgN/A
1:58 PM68 °FOvercast.6 mph53%30.07 "HgN/A
12:58 PM66 °FPartly sunny.5 mph52%30.08 "HgN/A
11:58 AM66 °FBroken clouds.2 mph56%30.08 "HgN/A
10:58 AM64 °FScattered clouds.2 mph60%30.09 "HgN/A
9:58 AM63 °FScattered clouds.8 mph64%30.09 "HgN/A
9:03 AM61 °FBroken clouds.6 mph77%30.11 "HgN/A
8:58 AM61 °FPartly sunny.5 mph77%30.09 "HgN/A
Weather by CustomWeather, © 2016

See weather overviewHow to use our weather pages